Paynesville, MN

2:23 AM CST on January 24, 2017 (GMT -0600)
Paynesville

Weather History for KPEX - October, 2012

Change the Weather History Date:

Friday, October 12, 2012

  Actual Average (KLJF) Record (KLJF)
Temperature  
Mean Temperature 33 °F -  
Max Temperature 51 °F 61 °F 83 °F (1956)
Min Temperature 15 °F 37 °F 21 °F (1980)
Degree Days  
Heating Degree Days 32    
Moisture  
Dew Point 15 °F    
Average Humidity 51    
Maximum Humidity 87    
Minimum Humidity 20    
Precipitation  
Precipitation 0.00 in - - ()
Sea Level Pressure  
Sea Level Pressure 30.27 in    
Wind  
Wind Speed 5 mph (SSE)    
Max Wind Speed 17 mph    
Max Gust Speed 25 mph    
Visibility 10 miles    
Events      
Averages and records for this station are not official NWS values.
T = Trace of Precipitation, MM = Missing Value Source: NWS Daily Summary

Daily Weather History Graph

Daily Weather History Graph

Search for Another Location

Airport or City:

Trip Planner

Search our weather history database for the weather conditions in past years. The results will help you decide how hot, cold, wet, or windy it might be!

Date:

Astronomy

Oct. 12, 2012 Rise Set
Actual Time 7:31 AM CDT 6:38 PM CDT
Civil Twilight 7:02 AM CDT 7:07 PM CDT
Nautical Twilight 6:27 AM CDT 7:41 PM CDT
Astronomical Twilight 5:53 AM CDT 8:16 PM CDT
Moon 4:07 AM CDT (10/12) 4:54 PM CDT (10/12)
Length of Visible Light 12h 05m
Length of Day
11h 06m
Waning Crescent, 10% of the Moon is Illuminated
Oct 12
Waning Crescent
Oct 15
New
Oct 21
First Quarter
Oct 29
Full
Nov 6
Last Quarter

Hourly Weather History & Observations

Time (CDT) Temp. Windchill Dew Point Humidity Pressure Visibility Wind Dir Wind Speed Gust Speed Precip Events Conditions
12:14 AM 21.7 °F 17.0 °F 14.7 °F 74% 30.41 in 10.0 mi WSW 3.5 mph - N/A   Clear
12:33 AM 21.0 °F - 15.4 °F 79% 30.41 in 10.0 mi Calm Calm - N/A   Clear
1:14 AM 19.2 °F - 13.3 °F 78% 30.41 in 10.0 mi Calm Calm - N/A   Clear
1:34 AM 19.9 °F - 16.0 °F 85% 30.41 in 10.0 mi Calm Calm - N/A   Clear
1:54 AM 18.7 °F - 14.7 °F 85% 30.42 in 10.0 mi Calm Calm - N/A   Clear
2:13 AM 19.6 °F - 16.0 °F 86% 30.42 in 10.0 mi Calm Calm - N/A   Clear
2:33 AM 18.5 °F - 15.1 °F 86% 30.42 in 10.0 mi Calm Calm - N/A   Clear
3:13 AM 16.7 °F - 13.1 °F 86% 30.41 in 10.0 mi Calm Calm - N/A   Clear
3:33 AM 15.6 °F - 11.5 °F 84% 30.41 in 10.0 mi Calm Calm - N/A   Clear
3:54 AM 15.4 °F - 11.8 °F 86% 30.42 in 10.0 mi Calm Calm - N/A   Clear
4:13 AM 15.6 °F - 12.0 °F 86% 30.43 in 10.0 mi Calm Calm - N/A   Clear
4:33 AM 15.8 °F - 12.4 °F 86% 30.43 in 10.0 mi Calm Calm - N/A   Clear
4:54 AM 15.3 °F - 11.1 °F 84% 30.43 in 10.0 mi Calm Calm - N/A   Clear
5:13 AM 15.6 °F - 11.1 °F 82% 30.42 in 10.0 mi Calm Calm - N/A   Clear
5:34 AM 16.9 °F - 12.4 °F 82% 30.41 in 10.0 mi Calm Calm - N/A   Clear
5:54 AM 16.7 °F - 12.2 °F 82% 30.43 in 10.0 mi Calm Calm - N/A   Clear
6:13 AM 16.7 °F - 13.5 °F 87% 30.41 in 10.0 mi Calm Calm - N/A   Clear
6:33 AM 15.6 °F - 11.3 °F 83% 30.41 in 10.0 mi Calm Calm - N/A   Clear
6:54 AM 16.0 °F - 10.8 °F 80% 30.41 in 10.0 mi Calm Calm - N/A   Clear
7:14 AM 16.0 °F - 10.8 °F 80% 30.41 in 10.0 mi Calm Calm - N/A   Clear
7:34 AM 16.2 °F - 11.1 °F 81% 30.41 in 10.0 mi Calm Calm - N/A   Clear
7:53 AM 16.9 °F - 11.5 °F 79% 30.40 in 10.0 mi Calm Calm - N/A   Clear
8:13 AM 20.1 °F - 15.6 °F 83% 30.41 in 10.0 mi Calm Calm - N/A   Clear
8:34 AM 23.0 °F - 17.6 °F 80% 30.40 in 10.0 mi Calm Calm - N/A   Clear
8:54 AM 31.8 °F 26.2 °F 24.1 °F 73% 30.40 in 10.0 mi ESE 5.8 mph - N/A   Clear
9:13 AM 33.3 °F 26.4 °F 23.9 °F 69% 30.39 in 10.0 mi SE 8.1 mph - N/A   Clear
9:34 AM 34.3 °F 27.7 °F 24.1 °F 66% 30.39 in 10.0 mi SE 8.1 mph - N/A   Clear
9:54 AM 35.6 °F 28.6 °F 23.5 °F 62% 30.39 in 10.0 mi SE 9.2 mph - N/A   Clear
10:13 AM 37.0 °F 29.3 °F 22.3 °F 55% 30.39 in 10.0 mi SE 11.5 mph - N/A   Clear
10:34 AM 38.5 °F 31.1 °F 22.5 °F 53% 30.37 in 10.0 mi SSE 11.5 mph - N/A   Clear
11:14 AM 41.5 °F 35.0 °F 21.0 °F 44% 30.36 in 10.0 mi South 11.5 mph 21.9 mph N/A   Clear
11:33 AM 42.4 °F 35.7 °F 19.9 °F 41% 30.35 in 10.0 mi SSE 12.7 mph 18.4 mph N/A   Clear
11:53 AM 43.7 °F 38.1 °F 19.0 °F 37% 30.35 in 10.0 mi SE 10.4 mph - N/A   Clear
12:13 PM 44.1 °F 37.4 °F 18.3 °F 36% 30.34 in 10.0 mi SSE 13.8 mph 18.4 mph N/A   Clear
12:33 PM 45.0 °F 38.2 °F 18.1 °F 34% 30.33 in 10.0 mi SE 15.0 mph 18.4 mph N/A   Clear
12:54 PM 46.8 °F - 17.4 °F 31% 30.32 in 10.0 mi South 13.8 mph 18.4 mph N/A   Clear
1:33 PM 46.9 °F - 15.3 °F 28% 30.29 in 10.0 mi South 15.0 mph 19.6 mph N/A   Clear
1:54 PM 48.0 °F - 15.3 °F 27% 30.28 in 10.0 mi SE 16.1 mph 21.9 mph N/A   Clear
2:14 PM 48.7 °F - 12.9 °F 24% 30.26 in 10.0 mi South 13.8 mph 21.9 mph N/A   Clear
2:33 PM 49.1 °F - 13.1 °F 24% 30.25 in 10.0 mi SSE 16.1 mph 20.7 mph N/A   Clear
2:54 PM 49.6 °F - 12.9 °F 23% 30.24 in 10.0 mi SSE 11.5 mph 20.7 mph N/A   Clear
3:13 PM 50.0 °F - 12.7 °F 23% 30.22 in 10.0 mi SSE 15.0 mph 24.2 mph N/A   Clear
3:33 PM 50.9 °F - 11.3 °F 20% 30.21 in 10.0 mi South 15.0 mph 20.7 mph N/A   Clear
3:54 PM 50.5 °F - 12.0 °F 21% 30.21 in 10.0 mi SSE 12.7 mph 23.0 mph N/A   Clear
4:13 PM 50.9 °F - 11.8 °F 21% 30.19 in 10.0 mi SE 17.3 mph 23.0 mph N/A   Clear
4:33 PM 51.4 °F - 11.8 °F 21% 30.18 in 10.0 mi SSE 16.1 mph 21.9 mph N/A   Clear
4:54 PM 51.1 °F - 12.0 °F 21% 30.17 in 10.0 mi SSE 13.8 mph 21.9 mph N/A   Clear
5:13 PM 50.9 °F - 12.2 °F 21% 30.15 in 10.0 mi SSE 12.7 mph 20.7 mph N/A   Clear
5:54 PM 50.4 °F - 14.4 °F 24% 30.13 in 10.0 mi SSE 13.8 mph 19.6 mph N/A   Clear
6:14 PM 50.0 °F - 14.2 °F 24% 30.11 in 10.0 mi SSE 12.7 mph 20.7 mph N/A   Clear
6:33 PM 49.1 °F - 15.1 °F 26% 30.10 in 10.0 mi SE 11.5 mph 17.3 mph N/A   Clear
6:53 PM 48.7 °F - 15.8 °F 27% 30.08 in 10.0 mi SE 11.5 mph - N/A   Scattered Clouds
7:14 PM 49.1 °F - 17.1 °F 28% 30.08 in 10.0 mi SSE 10.4 mph 18.4 mph N/A   Overcast
7:33 PM 49.1 °F - 15.6 °F 26% 30.07 in 10.0 mi SE 12.7 mph 19.6 mph N/A   Overcast
7:53 PM 48.9 °F - 15.8 °F 27% 30.07 in 10.0 mi SE 10.4 mph 16.1 mph N/A   Overcast
8:14 PM 49.1 °F - 15.6 °F 26% 30.06 in 10.0 mi SSE 9.2 mph 17.3 mph N/A   Overcast
8:33 PM 49.1 °F - 15.8 °F 27% 30.04 in 10.0 mi SE 12.7 mph 17.3 mph N/A   Overcast
8:53 PM 49.1 °F - 16.9 °F 28% 30.03 in 10.0 mi SE 12.7 mph 18.4 mph N/A   Overcast
9:14 PM 49.1 °F - 16.3 °F 27% 30.02 in 10.0 mi SSE 16.1 mph 23.0 mph N/A   Overcast
9:34 PM 49.1 °F - 15.1 °F 26% 30.02 in 10.0 mi SSE 16.1 mph 24.2 mph N/A   Overcast
9:53 PM 49.3 °F - 14.7 °F 25% 30.00 in 10.0 mi SSE 16.1 mph 23.0 mph N/A   Overcast
10:14 PM 49.3 °F - 14.5 °F 25% 29.99 in 10.0 mi SSE 15.0 mph 23.0 mph N/A   Overcast
10:53 PM 49.1 °F - 15.1 °F 26% 29.97 in 10.0 mi SSE 16.1 mph 25.3 mph N/A   Overcast
11:33 PM 49.3 °F - 15.8 °F 26% 29.96 in 10.0 mi SSE 16.1 mph 24.2 mph N/A   Overcast
11:53 PM 49.5 °F - 16.7 °F 27% 29.95 in 10.0 mi SSE 11.5 mph 20.7 mph N/A   Overcast